| time (UTC) | temp C | wind direction | speed KPH | gust KPH | rain 1hr cm | rain 24hr cm | rain mn cm | humidity % | barometer mb |
| 20260506024517 | 15 | 56 | 0.0 | 1.6 | 0.00 | 0.36 | 0.36 | 1 | 1007.1 |
| 20260506023011 | 15 | 14 | 0.0 | 1.6 | 0.00 | 0.36 | 0.36 | 1 | 1007.0 |
| 20260506021507 | 16 | 348 | 0.0 | 0.0 | 0.00 | 0.36 | 0.36 | 1 | 1006.6 |
| 20260506020013 | 16 | 344 | 0.0 | 0.0 | 0.00 | 0.36 | 0.36 | 1 | 1006.4 |
| 20260506014508 | 16 | 302 | 0.0 | 0.0 | 0.00 | 0.36 | 0.36 | 1 | 1006.3 |
| 20260506013005 | 16 | 302 | 0.0 | 0.0 | 0.00 | 0.36 | 0.36 | 1 | 1006.2 |
| 20260506011601 | 16 | 26 | 0.0 | 0.0 | 0.00 | 0.36 | 0.36 | 1 | 1005.9 |
| 20260506010003 | 16 | 176 | 0.0 | 0.0 | 0.00 | 0.36 | 0.36 | 1 | 1005.8 |
| 20260506004600 | 16 | 176 | 0.0 | 0.0 | 0.00 | 0.36 | 0.36 | 1 | 1005.4 |
| 20260506003058 | 16 | 176 | 0.0 | 0.0 | 0.00 | 0.36 | 0.36 | 1 | 1005.0 |
| 20260506001602 | 16 | 176 | 0.0 | 0.0 | 0.00 | 0.36 | 0.36 | 1 | 1004.9 |
| 20260506000006 | 16 | 176 | 0.0 | 0.0 | 0.00 | 0.36 | 0.36 | 1 | 1004.8 |
| 20260505234502 | 17 | 176 | 0.0 | 0.0 | 0.00 | 0.36 | 0.36 | 1 | 1004.8 |
| 20260505233058 | 17 | 176 | 0.0 | 0.0 | 0.00 | 0.36 | 0.36 | 1 | 1004.7 |
| 20260505231558 | 17 | 176 | 0.0 | 0.0 | 0.03 | 0.36 | 0.36 | 1 | 1004.7 |
| 20260505230031 | 18 | 176 | 0.0 | 0.0 | 0.03 | 0.36 | 0.36 | 1 | 1004.7 |
| 20260505224515 | 18 | 176 | 0.0 | 0.0 | 0.03 | 0.36 | 0.36 | 1 | 1004.6 |
| 20260505223013 | 18 | 185 | 0.0 | 0.0 | 0.03 | 0.36 | 0.36 | 1 | 1004.2 |
| 20260505221513 | 19 | 205 | 0.0 | 0.0 | 0.00 | 0.33 | 0.33 | 1 | 1004.6 |
| 20260505220022 | 19 | 154 | 0.0 | 0.0 | 0.00 | 0.33 | 0.33 | 1 | 1004.0 |
| 20260505214524 | 19 | 154 | 0.0 | 0.0 | 0.00 | 0.33 | 0.33 | 1 | 1004.1 |
| 20260505213027 | 19 | 158 | 0.0 | 0.0 | 0.00 | 0.33 | 0.33 | 1 | 1003.8 |
| 20260505211528 | 19 | 177 | 0.0 | 0.0 | 0.03 | 0.33 | 0.33 | 1 | 1003.8 |
| 20260505210028 | 18 | 171 | 0.0 | 0.0 | 0.03 | 0.33 | 0.33 | 1 | 1004.0 |
| 20260505204523 | 18 | 192 | 0.0 | 0.0 | 0.20 | 0.33 | 0.33 | 1 | 1004.0 |
| 20260505203019 | 19 | 221 | 0.0 | 0.0 | 0.20 | 0.33 | 0.33 | 1 | 1004.2 |
| 20260505201514 | 19 | 336 | 0.0 | 0.0 | 0.20 | 0.33 | 0.33 | 2 | 1004.1 |
| 20260505200002 | 20 | 319 | 0.0 | 11.3 | 0.18 | 0.30 | 0.30 | 42 | 1004.3 |
| 20260505194558 | 25 | 184 | 0.0 | 19.3 | 0.00 | 0.13 | 0.13 | 48 | 1004.0 |
| 20260505193055 | 25 | 205 | 0.0 | 9.7 | 0.00 | 0.13 | 0.13 | 44 | 1001.8 |
| 20260505191549 | 26 | 162 | 9.7 | 30.6 | 0.00 | 0.13 | 0.13 | 44 | 1001.7 |
| 20260505190108 | 25 | 225 | 0.0 | 16.1 | 0.00 | 0.13 | 0.13 | 46 | 1001.8 |
| 20260505184557 | 24 | 162 | 0.0 | 24.1 | 0.00 | 0.13 | 0.13 | 49 | 1002.5 |
| 20260505183047 | 23 | 178 | 0.0 | 0.0 | 0.05 | 0.13 | 0.13 | 55 | 1002.8 |
| 20260505181605 | 22 | 182 | 0.0 | 1.6 | 0.05 | 0.13 | 0.13 | 55 | 1003.1 |
| 20260505180044 | 23 | 259 | 0.0 | 0.0 | 0.05 | 0.13 | 0.13 | 53 | 1003.4 |
| 20260505174538 | 23 | 260 | 0.0 | 9.7 | 0.05 | 0.13 | 0.13 | 56 | 1003.5 |
| 20260505173036 | 25 | 214 | 0.0 | 16.1 | 0.00 | 0.08 | 0.08 | 51 | 1003.5 |
| 20260505171538 | 25 | 173 | 0.0 | 1.6 | 0.00 | 0.08 | 0.08 | 51 | 1003.5 |
| 20260505170026 | 25 | 152 | 0.0 | 12.9 | 0.00 | 0.08 | 0.08 | 51 | 1003.0 |
| 20260505164523 | 25 | 209 | 0.0 | 17.7 | 0.00 | 0.08 | 0.08 | 51 | 1003.2 |
| 20260505163009 | 25 | 185 | 0.0 | 12.9 | 0.00 | 0.08 | 0.08 | 50 | 1003.3 |
| 20260505161502 | 25 | 210 | 0.0 | 16.1 | 0.00 | 0.08 | 0.08 | 50 | 1003.5 |
| 20260505153045 | 25 | 198 | 0.0 | 16.1 | 0.00 | 0.08 | 0.08 | 50 | 1003.8 |
| 20260505151536 | 24 | 173 | 0.0 | 14.5 | 0.00 | 0.08 | 0.08 | 52 | 1003.8 |
| 20260505124508 | 16 | 108 | 0.0 | 0.0 | 0.00 | 0.08 | 0.08 | 1 | 1005.4 |
| 20260505123010 | 16 | 215 | 0.0 | 0.0 | 0.08 | 0.08 | 0.08 | 1 | 1005.5 |
| 20260505121506 | 16 | 215 | 0.0 | 0.0 | 0.08 | 0.08 | 0.08 | 1 | 1005.6 |
| 20260505120002 | 16 | 237 | 0.0 | 0.0 | 0.08 | 0.08 | 0.08 | 1 | 1005.4 |
| 20260505114558 | 17 | 232 | 0.0 | 0.0 | 0.08 | 0.08 | 0.08 | 10 | 1005.0 |
| 20260505113049 | 16 | 201 | 0.0 | 1.6 | 0.00 | 0.00 | 0.00 | 18 | 1005.3 |
| 20260505111545 | 15 | 220 | 0.0 | 0.0 | 0.00 | 0.00 | 0.00 | 11 | 1005.6 |
| 20260505101538 | 13 | 241 | 0.0 | 0.0 | 0.00 | 0.00 | 0.00 | 7 | 1005.2 |
| 20260505100036 | 13 | 241 | 0.0 | 0.0 | 0.00 | 0.00 | 0.00 | 11 | 1004.7 |
| 20260505094533 | 13 | 241 | 0.0 | 0.0 | 0.00 | 0.00 | 0.00 | 13 | 1004.9 |
| 20260505093025 | 13 | 241 | 0.0 | 0.0 | 0.00 | 0.00 | 0.00 | 16 | 1004.6 |
| 20260505091523 | 13 | 237 | 0.0 | 0.0 | 0.00 | 0.00 | 0.00 | 20 | 1004.5 |
| 20260505090023 | 13 | 219 | 0.0 | 0.0 | 0.00 | 0.00 | 0.00 | 24 | 1004.4 |
| 20260505084521 | 14 | 219 | 0.0 | 0.0 | 0.00 | 0.00 | 0.00 | 28 | 1004.4 |
| 20260505083008 | 14 | 214 | 0.0 | 0.0 | 0.00 | 0.00 | 0.00 | 31 | 1004.4 |
| 20260505081507 | 14 | 213 | 0.0 | 0.0 | 0.00 | 0.00 | 0.00 | 30 | 1004.4 |
| 20260505080008 | 15 | 213 | 0.0 | 0.0 | 0.00 | 0.00 | 0.00 | 32 | 1004.5 |
| 20260505074505 | 14 | 213 | 0.0 | 0.0 | 0.00 | 0.00 | 0.00 | 35 | 1004.5 |
| 20260505073015 | 15 | 213 | 0.0 | 0.0 | 0.00 | 0.00 | 0.00 | 38 | 1004.5 |
| 20260505071514 | 15 | 213 | 0.0 | 0.0 | 0.00 | 0.00 | 0.00 | 40 | 1004.5 |
| 20260505070013 | 15 | 213 | 0.0 | 0.0 | 0.00 | 0.00 | 0.00 | 41 | 1004.7 |
| 20260505064512 | 14 | 213 | 0.0 | 0.0 | 0.00 | 0.00 | 0.00 | 39 | 1004.7 |
| 20260505063022 | 14 | 213 | 0.0 | 0.0 | 0.00 | 0.00 | 0.00 | 37 | 1004.7 |
| 20260505061522 | 13 | 213 | 0.0 | 0.0 | 0.00 | 0.00 | 0.00 | 35 | 1004.7 |
| 20260505060020 | 13 | 213 | 0.0 | 0.0 | 0.00 | 0.00 | 0.00 | 36 | 1004.6 |
| 20260505054540 | 13 | 213 | 0.0 | 0.0 | 0.00 | 0.00 | 0.00 | 40 | 1004.9 |
| 20260505053008 | 13 | 213 | 0.0 | 0.0 | 0.00 | 0.00 | 0.00 | 45 | 1004.9 |
| 20260505051507 | 13 | 213 | 0.0 | 0.0 | 0.00 | 0.00 | 0.00 | 48 | 1005.0 |
| 20260505041606 | 15 | 213 | 0.0 | 0.0 | 0.00 | 0.00 | 0.00 | 57 | 1004.9 |
| 20260505034610 | 16 | 211 | 0.0 | 0.0 | 0.00 | 0.00 | 0.00 | 58 | 1004.8 |
| 20260505033007 | 17 | 218 | 0.0 | 0.0 | 0.00 | 0.00 | 0.00 | 57 | 1004.6 |
| 20260505031504 | 17 | 228 | 0.0 | 0.0 | 0.00 | 0.00 | 0.00 | 55 | 1004.7 |
| 20260505030012 | 17 | 150 | 0.0 | 0.0 | 0.00 | 0.00 | 0.00 | 55 | 1004.8 |